weather station
Area: 7197 km2
The highest point: Čupec (819 m.s.l.)
Total stations: 34
Stations online: 33
Stations offline: 1
Current weather
-4°C

Meteorological map - weather stations in Jihomoravský

. The meteorological maps show weather information from WARIO weather stations

Weather stations Jihomoravský

 UpdatesNameStatusTemperatureHumidityWind speedWind direction
28.1.2023 21:05Olešnice-2.8 °C89.1 %0.0 m/s S
28.1.2023 21:06Archlebov-1.2 °C90.5 %2.7 m/s SW
28.1.2023 21:06Boskovice-3.0 °C78.3 %0.9 m/s NE
28.1.2023 21:05Brno - Královo Pole-1.7 °C83.6 %0.0 m/s SW
28.1.2023 21:06Brno-Líšeň-1.9 °C76.6 %1.6 m/s NE
28.1.2023 21:06Brno - Vinohrady-1.7 °C83.2 %2.0 m/s NW
28.1.2023 21:05Brno-Kníničky-1.4 °C86.4 %0.0 m/s NW
28.1.2023 21:05Bzenec-0.8 °C73.9 %1.1 m/s E
28.1.2023 21:06Nížkovice-1.4 °C80.5 %0.8 m/s N
28.1.2023 21:06Moravany-40.0 °C %0.0 m/s NW
28.1.2023 21:06Lesní Hluboké -0.9 °C89.7 %1.2 m/s N
28.1.2023 21:05Brno - Lesná-1.4 °C81.5 %1.3 m/s NW
28.1.2023 21:06Olešnice-4.4 °C83.8 %1.3 m/s S
28.1.2023 21:06Dolní Dubňany-1.7 °C79.9 %2.5 m/s SW
28.1.2023 21:06Svatobořice0.5 °C84.3 %0.0 m/s N
28.1.2023 21:06Mutěnice °C %1.3 m/s NW
28.1.2023 21:06Blansko-2.0 °C79.2 %1.5 m/s NW
28.1.2023 21:06Nebovidy-2.1 °C81.8 %2.1 m/s E
28.1.2023 21:05Kravsko-2.2 °C86.8 %2.5 m/s NW
28.1.2023 20:54Pohořelice-0.9 °C81.9 %3.2 m/s S
28.1.2023 21:06Pozořice-1.9 °C73.6 %1.8 m/s N
28.1.2023 21:06Předklášteří-1.7 °C100.0 %0.9 m/s S
28.1.2023 21:06Brno - Přízřenice-0.8 °C72.4 %1.8 m/s E
28.1.2023 21:06Brno - Jih-0.7 °C71.9 %1.8 m/s NE
28.1.2023 21:06Šlapanice-1.3 °C87.7 %0.0 m/s W
28.1.2023 21:06Strážnice GUMEX °C %3.4 m/s S
28.1.2023 21:06Němčičky-0.6 °C71.6 %2.2 m/s W
28.1.2023 21:05Předklášteří-1.7 °C75.2 %1.4 m/s S
28.1.2023 21:06Troubsko-1.7 °C74.9 %2.1 m/s N
28.1.2023 21:05Veselí nad Moravou-0.2 °C87.4 %1.0 m/s N
28.1.2023 21:06Kněževes Veselka-40.0 °C %1.3 m/s N
28.1.2023 21:05Višňové0.9 °C58.9 %0.0 m/s W
28.1.2023 21:06Vlasatice-1.0 °C84.9 %2.2 m/s SW
28.1.2023 21:06Žarošice °C %1.7 m/s N
Email notifications
Enter your email address to subscribe to notifications about news at warioweather.com. Your email address will not be used for any purpose other than sending these emails and will not be provided to any third party. The subscription can be ended at any time.
All data are only indicative. The portal administrator has no responsibility for potentially incorrect data and related consequences. Publishing or further sharing of content from www.warioweather.com is only allowed with written consent from WANET s.r.o.